Location: *
(42.3442°N, 9.2072°E)
Time: 23:46:07
(UTC+00:00)

Cosmos 2181 Rocket - Pass Details

Date: 09 April 2020
Orbit: 952 x 1014 km, 82.9° (Epoch: 02 June)

Event Time Altitude Azimuth Distance (km) Brightness Sun altitude
Exits shadow 19:28:05 10° 166° (SSE) 2,765 6.0 -16.4°
Reaches altitude 10° 19:28:11 10° 166° (SSE) 2,728 6.0 -16.4°
Maximum altitude 19:34:12 52° 91° (E) 1,189 4.1 -17.4°
Drops below altitude 10° 19:40:10 10° 17° (NNE) 2,707 6.5 -18.3°
Sets 19:42:43 0° 13° (NNE) 3,651 7.2 -18.8°
